Regional Weather Roundup
Issued by NWS

Home | Current Version | Previous Version | Graphics & Text | Print | Product List | Glossary Off
Versions: 1 2 3 4 5 6 7 8 9 10 11 12 13 14 15 16 17 18 19 20 21 22 23 24 25 26 27 28 29 30 31 32 33 34 35 36 37 38 39 40 41 42 43 44 45 46 47 48 49 50

000
ASUS43 KMKX 250920
RWRWI

WISCONSIN REGIONAL WEATHER ROUNDUP
NATIONAL WEATHER SERVICE MILWAUKEE/SULLIVAN WI
300 AM CST SUN JAN 25 2015

NOTE: "FAIR" INDICATES FEW OR NO CLOUDS BELOW 12,000 FEET WITH NO
SIGNIFICANT WEATHER AND/OR OBSTRUCTIONS TO VISIBILITY.

WIZ001-002-006>008-014>016-023>028-251000-
NORTHWEST WISCONSIN

CITY           SKY/WX    TMP DP  RH WIND       PRES   REMARKS
SUPERIOR ARPT  FLURRIES  21  14  74 E14G25    29.94R WCI   8
ASHLAND        CLOUDY    19  10  68 E7        29.92R WCI  10
HAYWARD        MOCLDY    17  10  74 NE8G18    29.86R WCI   7
SIREN          CLOUDY    21  14  74 NE8       29.86R WCI  11
CUMBERLAND     CLOUDY    21  16  79 NE12      29.81R WCI   9
RICE LAKE      CLOUDY    23  16  73 N16       29.83R WCI  10
CHETEK         CLOUDY    24  16  72 N10G17    29.81R WCI  13
LADYSMITH      CLOUDY    21  16  79 NE10      29.83R WCI  10
EAU CLAIRE     CLOUDY    28  21  75 NE17G24   29.77R WCI  16
MENOMONIE      CLOUDY    30  21  68 N13G22    29.78R WCI  20
NEW RICHMOND   CLOUDY    28  22  76 NE14      29.79R WCI  17
OSCEOLA        CLOUDY    28  20  75 NE12      29.84R WCI  17
$$

WIZ003>005-009-010-017-018-251000-
NORTH CENTRAL WISCONSIN

CITY           SKY/WX    TMP DP  RH WIND       PRES   REMARKS
MANITOWISH WTR MOCLDY    11   7  84 CALM      29.84R
ARBOR VITAE    MOCLDY    14   9  79 CALM      29.83R
WOODRUFF       MOCLDY    14   9  79 CALM      29.83R
RHINELANDER    CLOUDY    14   7  73 NE8       29.83R WCI   3
EAGLE RIVER    CLOUDY    14   7  73 NE5       29.82S WCI   7
LAND O LAKES   CLOUDY    12   9  89 N3        29.84S
PHILLIPS       CLOUDY    14   9  79 NE8       29.83R WCI   3
TOMAHAWK       CLOUDY    14   8  76 NE7       29.83R WCI   4
MEDFORD        CLOUDY    21  15  79 NE12      29.79R WCI   9
MERRILL        CLOUDY    20  14  77 NE13      29.82R WCI   7
$$

WIZ029-030-035-036-043>047-251000-
CENTRAL WISCONSIN

CITY           SKY/WX    TMP DP  RH WIND       PRES   REMARKS
WAUSAU         CLOUDY    22  14  71 NE14      29.79R WCI   9
MOSINEE        CLOUDY    25  21  86 E14       29.79R WCI  13
MARSHFIELD     CLOUDY    28  23  81 E14G21    29.76R WCI  17
STEVENS POINT  CLOUDY    22  17  80 E10       29.80R WCI  11
WAUPACA        CLOUDY    24  15  68 NE10      29.83R WCI  13
WAUTOMA        CLOUDY    23  18  81 NE15      29.80R WCI  10
WISC RAPIDS    CLOUDY    25  18  74 E16G23    29.80R WCI  12
CAMP DOUGLAS   CLOUDY    28  28 100 E13       29.75R WCI  17
$$

WIZ011>013-019>022-031-037>040-048>050-251000-
NORTHEAST WISCONSIN

CITY           SKY/WX    TMP DP  RH WIND       PRES   REMARKS
ANTIGO         CLOUDY    16  11  81 NE12      29.82R WCI   3
SHAWANO        CLOUDY    22  14  70 NE13      29.86R WCI  10
OCONTO         CLOUDY    21  12  69 MISG      29.87R
STURGEON BAY   CLOUDY    19  10  68 N12       29.87R WCI   7
GREEN BAY      CLOUDY    21  14  74 NE21      29.85R WCI   5
MANITOWOC      CLOUDY    23  18  81 N14       29.82R WCI  11
APPLETON       CLOUDY    21  14  73 NE17G28   29.82R WCI   7
CLINTONVILLE   CLOUDY    21  14  73 NE12G18   29.84S WCI   9
OSHKOSH        CLOUDY    22  15  75 NE18      29.81R WCI   7
$$

WIZ032>034-041-042-053>061-251000-
SOUTHWEST WISCONSIN

CITY           SKY/WX    TMP DP  RH WIND       PRES   REMARKS
LA CROSSE      CLOUDY    36  30  79 E10G21    29.71R WCI  28
SPARTA         FLURRIES  30  27  89 NE12G22   29.74R WCI  21
VIROQUA        CLOUDY    32  32  99 E17       29.66S WCI  21
BOSCOBEL       LGT SNOW  35  30  82 NE8       29.68R WCI  29
PRAIRIE DU CHI CLOUDY    35  30  83 E7        29.65R WCI  29
PLATTEVILLE    CLOUDY    33  31  93 NE16      29.63S WCI  22
$$

WIZ056-057-062-063-064-067-068-251000-
SOUTH CENTRAL WISCONSIN

CITY           SKY/WX    TMP DP  RH WIND       PRES   REMARKS
REEDSBURG      CLOUDY    29  26  90 E12G23    29.72R WCI  19
BARABOO/DELLS  CLOUDY    28  24  88 NE17G24   29.73R WCI  15
LONE ROCK      LGT SNOW  33  30  88 E15       29.70R FOG     WCI  23
MINERAL POINT  CLOUDY    34  32  93 E10G16    29.65R WCI  26
MADISON        CLOUDY    30  26  85 NE16      29.71R WCI  19
MIDDLETON      CLOUDY    32  30  92 E15G22    29.71R WCI  22
WATERTOWN      CLOUDY    28  24  84 NE13      29.73R WCI  17
MONROE         CLOUDY    32  32 100 NE12G17   29.66R WCI  23
JANESVILLE     CLOUDY    32  32 100 E17G23    29.68S WCI  21
$$

WIZ051-052-058>065-066-070>072-251000-
SOUTHEAST WISCONSIN

CITY           SKY/WX    TMP DP  RH WIND       PRES   REMARKS
MILWAUKEE      FLURRIES  30  24  78 NE17G25   29.74R WCI  18
WAUKESHA       CLOUDY    28  23  80 NE14G25   29.74R WCI  17
MILWAUKEE/TIMM CLOUDY    30  23  74 NE20G26   29.76R WCI  18
RACINE         CLOUDY    31  26  82 NE18      29.74R WCI  19
BURLINGTON     CLOUDY    29  28  94 NE21G26   29.71S WCI  16
KENOSHA        CLOUDY    31  29  92 NE17      29.71R FOG     WCI  19
FOND DU LAC    CLOUDY    25  18  74 NE12G23   29.80R WCI  14
SHEBOYGAN      CLOUDY    26  20  77 NE18      29.79R WCI  13
WEST BEND      CLOUDY    28  21  74 NE14G25   29.76R WCI  17
JUNEAU         CLOUDY    26  21  82 NE15G23   29.76R WCI  14
$$

LSZ147-162-251000-
LAKE SUPERIOR

STATION/POSITION TIME  TEMP    WIND        PRES    WAVE
                       AIR SEA DIR/SP/G            HT/PER
                 (UTC) (F)     (DEG/KT/KT) (MB)    (FT/S)
DEVILS ISLAND    0900   20      40/ 23/ 25 1015.5R
PORT WING        0800   20      60/  8/ 12 1013.2R
SAXON HARBOR     0800   18      CALM  /  5 1013.2
$$

LMZ867-665-643>646-251000-
LAKE MICHIGAN

STATION/POSITION TIME  TEMP    WIND        PRES    WAVE
                       AIR SEA DIR/SP/G            HT/PER
                 (UTC) (F)     (DEG/KT/KT) (MB)    (FT/S)
NORTHPORT PIER   0804   21     360/ 14/ 17 1011.9R
SISTER BAY       0713   20      30/  8/ 11   N/A
KEWAUNEE LAKESHO 0800   22      10/ 10/ 14 1009.0R
SHEBOYGAN LAKESH 0900   28      20/ 26/ 29 1009.6R
PORT WASHINGTON  0824   30      40/ 21/ 27 1008.8R
MILWAUKEE LAKESH 0900   31      30/ 24/ 28   N/A
KENOSHA   LAKESH 0900   32      30/ 22/ 25 1006.1R
$$

TC  - TEMPERATURE IN CELSIUS
VSB - VISIBILITY IN STATUTE MILES
WCI - WIND CHILL INDEX
HX  - HEAT INDEX



USA.gov is the U.S. government's official web portal to all federal, state and local government web resources and services.